[[{"header":{"parameterUnit":"m.s-1","parameterCategory":1,"la1":30.2991,"la2":30.254,"lo1":-89.0895,"lo2":-89.0444,"dy":0.0017,"dx":0.0017,"nx":28,"ny":28,"refTime":"2026-02-16T09:00:00:Z","depth":0,"parameterNumber":2,"parameterNumberName":"U-component_of_WINDS"},"data":[0,0,0,0,0,0,0,0,0,0,0,0,0,0,0,0,0,0,0,0,0,0,0,0,0,0,0,0,0,0,0,0,0,0,0,0,0,0,0,0,0,0,0,0,0,0,0,0,0,0,0,0,0,0,0,0,0,0,-1.1055,-1.1056,0,-1.114,-1.1141,-1.1142,-1.1151,-1.115,-1.1149,-1.1148,-1.1238,-1.1241,-1.1244,0,0,0,0,0,0,0,0,0,0,0,0,0,-1.0904,-1.0907,-1.1055,-1.1056,-1.1057,-1.114,-1.1141,-1.1142,-1.1151,-1.115,-1.1149,-1.1148,-1.1237,-1.1241,-1.1245,0,0,0,0,0,0,0,0,0,0,0,0,0,-1.0977,-1.0907,-1.1054,-1.1071,-1.1073,-1.1139,-1.1141,-1.1142,-1.1151,-1.115,-1.1148,-1.1147,-1.1236,-1.124,-1.1245,-1.1301,0,0,-1.126,-1.1262,0,0,0,0,0,0,0,0,-1.0973,-1.0983,-1.1068,-1.107,-1.1073,-1.1133,-1.1121,-1.1196,-1.1151,-1.1122,-1.1148,-1.1147,-1.1204,-1.1212,-1.1231,-1.1305,-1.1309,-1.126,-1.1263,-1.1265,-1.1267,0,0,0,0,0,0,0,-1.0968,-1.0979,-1.1088,-1.1069,-1.1072,-1.1076,-1.1085,-1.1135,-1.1169,-1.1124,-1.1125,-1.1135,-1.1206,-1.1226,-1.1233,-1.1311,-1.126,-1.1264,-1.1267,-1.1269,-1.1438,-1.1439,0,0,0,0,0,0,-1.0959,-1.0975,-1.1086,-1.1091,-1.1019,-1.1079,-1.1089,-1.1115,-1.1169,-1.1176,-1.1136,-1.1135,-1.1218,-1.1227,-1.1236,-1.1307,-1.1265,-1.127,-1.1273,-1.1436,-1.1438,-1.144,0,0,0,0,0,0,-1.0956,-1.0969,-1.1082,-1.1033,-1.1048,-1.1083,-1.1112,-1.1118,-1.1138,-1.1178,-1.1184,-1.115,-1.1218,-1.1229,-1.1285,-1.131,-1.1272,-1.1276,-1.1434,-1.1437,-1.1439,-1.1447,0,0,0,0,0,0,-1.0952,-1.0968,-1.0988,-1.1033,-1.105,-1.1129,-1.1114,-1.112,-1.1146,-1.1145,-1.1193,-1.1199,-1.1218,-1.1278,-1.129,-1.1316,-1.128,-1.1432,-1.1436,-1.1438,-1.1445,-1.145,-1.1454,0,0,0,0,0,-1.0946,-1.0988,-1.0989,-1.1003,-1.1077,-1.113,-1.114,-1.1159,-1.1148,-1.117,-1.1195,-1.1198,-1.1305,-1.1284,-1.1297,-1.1325,-1.1431,-1.1435,-1.1438,-1.1443,-1.1449,-1.1454,0,0,0,0,0,0,-1.0945,-1.0994,-1.0996,-1.1053,-1.1088,-1.1132,-1.116,-1.1164,-1.1203,-1.1201,-1.1224,-1.1235,-1.1291,-1.1313,-1.1289,-1.1383,-1.1367,-1.1373,-1.1366,-1.1372,-1.1376,-1.137,-1.1284,0,0,0,0,0,-1.0951,-1.099,-1.103,-1.1077,-1.1094,-1.1124,-1.1148,-1.116,-1.1196,-1.1211,-1.1241,-1.1277,-1.132,-1.1347,-1.1388,-1.1448,-1.146,-1.1474,-1.1478,-1.1482,-1.1487,-1.1523,-1.1531,-1.1452,-1.1452,-1.1452,0,0,-1.0965,-1.0996,-1.1019,-1.1078,-1.1105,-1.1146,-1.1136,-1.1179,-1.121,-1.1218,-1.1273,-1.1296,-1.1339,-1.1397,-1.1425,-1.1418,-1.1512,-1.1486,-1.1489,-1.1493,-1.1528,-1.1535,-1.1542,-1.1454,-1.1454,-1.1453,0,0,-1.1011,-1.1038,-1.108,-1.1108,-1.1151,-1.117,-1.118,-1.1224,-1.124,-1.1295,-1.1303,-1.134,-1.1412,-1.1442,-1.1467,-1.1526,-1.153,-1.1538,-1.1561,-1.1596,-1.1602,-1.1608,-1.1631,-1.1638,-1.1544,-1.1544,-1.1544,0,-1.1023,-1.1083,-1.1102,-1.1145,-1.1171,-1.118,-1.1224,-1.1251,-1.1304,-1.1323,-1.1314,-1.1405,-1.1434,-1.1501,-1.1516,-1.1535,-1.1549,-1.1533,-1.1599,-1.1605,-1.1611,-1.1633,-1.1641,-1.1544,-1.1544,-1.1544,-1.1544,0,-1.1097,-1.1139,-1.1168,-1.1219,-1.1249,-1.1292,-1.1318,-1.1346,-1.1356,-1.1377,-1.1434,-1.1469,-1.1518,-1.1535,-1.1545,-1.1604,-1.1599,-1.1594,-1.1579,-1.1619,-1.164,-1.1649,-1.1546,-1.1545,-1.1545,-1.1545,0,0,-1.1145,-1.1206,-1.1217,-1.1241,-1.1288,-1.1322,-1.1366,-1.1413,-1.1437,-1.1474,-1.1514,-1.1574,-1.1571,-1.1599,-1.1613,-1.1643,-1.1689,-1.1635,-1.1637,-1.1645,-1.1759,-1.1763,-1.1773,-1.1692,-1.1694,-1.1695,-1.1756,0,-1.1197,-1.1276,-1.1294,-1.1362,-1.1402,-1.1411,-1.1451,-1.1485,-1.1506,-1.1544,-1.1568,-1.1611,-1.1603,-1.162,-1.165,-1.1677,-1.1713,-1.1673,-1.1731,-1.1733,-1.1721,-1.1783,-1.1787,-1.1843,-1.1765,-1.1766,-1.1767,0,-1.1269,-1.1307,-1.1379,-1.1423,-1.144,-1.1475,-1.152,-1.1556,-1.1596,-1.1609,-1.1641,-1.1652,-1.17,-1.1682,-1.175,-1.1723,-1.1747,-1.1764,-1.1767,-1.1774,-1.1753,-1.1794,-1.1861,-1.187,-1.178,-1.1779,-1.1778,0,-1.1299,-1.1368,-1.1421,-1.1441,-1.1492,-1.1517,-1.154,-1.1578,-1.1606,-1.1646,-1.1665,-1.171,-1.1735,-1.1771,-1.1794,-1.1778,-1.1862,-1.1844,-1.1876,-1.1875,-1.1894,-1.1893,-1.1968,-1.1907,-1.1907,-1.1907,-1.1907,0,-1.1356,-1.14,-1.1435,-1.1467,-1.1517,-1.1539,-1.1588,-1.1611,-1.1646,-1.1684,-1.1695,-1.1731,-1.1759,-1.1799,-1.1818,-1.1873,-1.1884,-1.1897,-1.1902,-1.1897,-1.1896,-1.1915,-1.1912,-1.1909,-1.1909,-1.1908,-1.1908,0,-1.1399,-1.1423,-1.1481,-1.1525,-1.1538,-1.1573,-1.1612,-1.1644,-1.1666,-1.1714,-1.1727,-1.1761,-1.1809,-1.1836,-1.1897,-1.1909,-1.1971,-1.1973,-1.1958,-1.196,-1.199,-1.1988,-1.2082,-1.2096,-1.2024,-1.2025,-1.2026,0,-1.1434,-1.1468,-1.1516,-1.1542,-1.1566,-1.1607,-1.1636,-1.1658,-1.1687,-1.1736,-1.1763,-1.1812,-1.1852,-1.1929,-1.196,-1.2007,-1.2012,-1.2041,-1.2019,-1.2013,-1.2014,-1.2012,-1.2017,-1.2046,-1.2046,-1.2047,-1.2047,0,-1.1496,-1.1507,-1.1546,-1.1591,-1.1624,-1.166,-1.1696,-1.1717,-1.1746,-1.1779,-1.1828,-1.1859,-1.1921,-1.197,-1.2019,-1.2045,-1.2052,-1.2054,-1.2064,-1.206,-1.205,-1.2058,-1.197,-1.2052,-1.2051,-1.2051,-1.2051,-1.2051,-1.1537,-1.1569,-1.1607,-1.1652,-1.1681,-1.1715,-1.1748,-1.1774,-1.1815,-1.1866,-1.1878,-1.193,-1.1971,-1.2038,-1.2064,-1.2107,-1.2101,-1.2115,-1.2119,-1.2123,-1.2125,-1.2042,-1.2116,-1.2116,-1.2116,-1.2115,-1.2115,0,-1.1601,-1.1626,-1.1667,-1.1717,-1.1752,-1.1754,-1.1795,-1.1825,-1.187,-1.1907,-1.1946,-1.2003,-1.2051,-1.2086,-1.2135,-1.2163,-1.2167,-1.2175,-1.2174,-1.218,-1.2126,-1.2113,-1.2171,-1.2171,-1.2171,-1.2171,-1.2171,-1.2171,-1.1638,-1.1692,-1.1707,-1.1776,-1.1802,-1.1852,-1.1876,-1.1907,-1.1937,-1.2,-1.204,-1.2062,-1.2099,-1.2151,-1.2195,-1.2205,-1.2223,-1.2231,-1.2241,-1.219,-1.2184,-1.2178,-1.2166,-1.2234,-1.2234,-1.2292,-1.2292,-1.2293]},{"header":{"parameterUnit":"m.s-1","parameterCategory":1,"la1":30.2991,"la2":30.254,"lo1":-89.0895,"lo2":-89.0444,"dy":0.0017,"dx":0.0017,"nx":28,"ny":28,"refTime":"2026-02-16T09:00:00:Z","depth":0,"parameterNumber":3,"parameterNumberName":"V-component_of_WINDS"},"data":[0,0,0,0,0,0,0,0,0,0,0,0,0,0,0,0,0,0,0,0,0,0,0,0,0,0,0,0,0,0,0,0,0,0,0,0,0,0,0,0,0,0,0,0,0,0,0,0,0,0,0,0,0,0,0,0,0,0,0.7547,0.7546,0,0.7525,0.7525,0.7525,0.7483,0.7483,0.7482,0.7481,0.746,0.7461,0.7461,0,0,0,0,0,0,0,0,0,0,0,0,0,0.7554,0.7554,0.7547,0.7546,0.7546,0.7525,0.7525,0.7525,0.7483,0.7482,0.7481,0.7481,0.746,0.7461,0.7461,0,0,0,0,0,0,0,0,0,0,0,0,0,0.7544,0.7554,0.7547,0.7523,0.7521,0.7525,0.7525,0.7524,0.7484,0.7482,0.7481,0.748,0.746,0.7461,0.7461,0.7487,0,0,0.7462,0.7462,0,0,0,0,0,0,0,0,0.7544,0.7543,0.7527,0.7525,0.7522,0.7506,0.752,0.7512,0.7484,0.7498,0.7481,0.748,0.7477,0.7475,0.7474,0.7486,0.7485,0.7462,0.7462,0.7462,0.7462,0,0,0,0,0,0,0,0.7545,0.7544,0.7538,0.7527,0.7524,0.7514,0.7511,0.7518,0.7494,0.7496,0.7493,0.7491,0.7475,0.7474,0.7473,0.7485,0.7462,0.7462,0.7462,0.7462,0.7519,0.752,0,0,0,0,0,0,0.7549,0.7545,0.7539,0.7537,0.753,0.7515,0.7512,0.7512,0.7494,0.749,0.7492,0.749,0.7474,0.7473,0.7472,0.7503,0.7462,0.7462,0.7463,0.7518,0.7519,0.7521,0,0,0,0,0,0,0.7549,0.7549,0.754,0.754,0.7538,0.7516,0.7517,0.7512,0.7511,0.7491,0.7487,0.7496,0.7473,0.7472,0.7484,0.7502,0.7463,0.7463,0.7516,0.7518,0.752,0.7564,0,0,0,0,0,0,0.755,0.7549,0.7558,0.7541,0.7539,0.7551,0.7518,0.7513,0.7512,0.7508,0.7493,0.7489,0.7472,0.7484,0.7484,0.7501,0.7463,0.7515,0.7517,0.752,0.7561,0.7567,0.7572,0,0,0,0,0,0.755,0.7571,0.7559,0.7558,0.7549,0.7552,0.7551,0.753,0.7513,0.7523,0.751,0.749,0.75,0.7485,0.7486,0.7503,0.7513,0.7517,0.7519,0.7558,0.7566,0.7572,0,0,0,0,0,0,0.7591,0.7569,0.7554,0.7571,0.7564,0.7545,0.7556,0.7539,0.7537,0.7533,0.7508,0.7505,0.7521,0.7513,0.7497,0.7528,0.7503,0.7507,0.7533,0.754,0.7546,0.7547,0.7463,0,0,0,0,0,0.7602,0.7606,0.7586,0.7602,0.7599,0.7579,0.7579,0.7564,0.7556,0.7552,0.754,0.7534,0.7536,0.7537,0.7538,0.7559,0.7556,0.7572,0.7577,0.7582,0.7586,0.7598,0.7605,0.7531,0.7531,0.7531,0,0,0.7625,0.7613,0.7617,0.761,0.7603,0.7608,0.7576,0.7583,0.7586,0.7553,0.7564,0.7556,0.7547,0.7564,0.7571,0.7558,0.7605,0.7586,0.759,0.7591,0.7602,0.7609,0.7615,0.7533,0.7532,0.7532,0,0,0.7669,0.766,0.7673,0.7667,0.7656,0.7642,0.7646,0.763,0.7623,0.7633,0.7609,0.7614,0.7617,0.7612,0.761,0.7654,0.7636,0.7655,0.7685,0.7698,0.7704,0.7709,0.7725,0.7732,0.7658,0.7658,0.7658,0,0.7699,0.7705,0.7682,0.769,0.7689,0.7659,0.7673,0.7668,0.7658,0.7658,0.7644,0.7648,0.764,0.7656,0.7667,0.7666,0.767,0.7656,0.7704,0.7709,0.7714,0.7729,0.7736,0.766,0.766,0.766,0.766,0,0.7743,0.7747,0.7759,0.7751,0.775,0.7761,0.7741,0.7744,0.7729,0.7717,0.7729,0.7718,0.7717,0.7719,0.7705,0.7734,0.7727,0.7709,0.7683,0.7724,0.7738,0.7744,0.7664,0.7663,0.7662,0.7662,0,0,0.7811,0.7791,0.7796,0.7792,0.7779,0.7783,0.7793,0.7791,0.7794,0.7789,0.7798,0.7802,0.7785,0.7783,0.7768,0.7779,0.7816,0.776,0.7759,0.7771,0.7849,0.7863,0.787,0.7804,0.7805,0.7805,0.785,0,0.7853,0.7869,0.7849,0.787,0.7874,0.7847,0.7856,0.785,0.784,0.7843,0.7831,0.7835,0.7813,0.7811,0.7821,0.7809,0.7831,0.7806,0.7812,0.7813,0.7816,0.7877,0.7892,0.7934,0.7855,0.7856,0.7857,0,0.7903,0.7901,0.7922,0.7909,0.791,0.7918,0.7916,0.7919,0.7912,0.7903,0.7902,0.7884,0.7894,0.7869,0.7884,0.7867,0.7869,0.7864,0.7865,0.7865,0.7838,0.788,0.7947,0.7954,0.7865,0.7865,0.7864,0,0.7953,0.7954,0.7967,0.7965,0.795,0.7957,0.7951,0.7942,0.7943,0.7941,0.7941,0.7941,0.7941,0.7941,0.7924,0.7907,0.7941,0.7915,0.7936,0.7936,0.7944,0.7944,0.8013,0.7944,0.7944,0.7944,0.7944,0,0.8002,0.8016,0.7989,0.7998,0.8013,0.7991,0.8007,0.7999,0.7991,0.7998,0.7975,0.7982,0.7958,0.7963,0.795,0.7965,0.7965,0.7959,0.7956,0.7962,0.7963,0.7963,0.796,0.7946,0.7946,0.7945,0.7945,0,0.8059,0.8042,0.8055,0.8039,0.8036,0.8048,0.8035,0.8043,0.8031,0.804,0.8041,0.8023,0.8028,0.8011,0.8013,0.8004,0.8026,0.8017,0.8028,0.8026,0.8048,0.8047,0.8121,0.813,0.8055,0.8055,0.8056,0,0.8091,0.8102,0.8088,0.8091,0.8086,0.809,0.8091,0.807,0.8072,0.8066,0.8074,0.8077,0.8078,0.8087,0.8074,0.8076,0.8068,0.8094,0.8068,0.8074,0.8069,0.8069,0.8071,0.8099,0.81,0.8101,0.8101,0,0.8151,0.8143,0.8144,0.8143,0.8145,0.8143,0.814,0.8144,0.8122,0.8125,0.813,0.8131,0.8133,0.8136,0.8135,0.813,0.8113,0.811,0.8115,0.8121,0.8127,0.8125,0.8044,0.8108,0.8107,0.8107,0.8106,0.8106,0.8197,0.8206,0.8198,0.8201,0.8196,0.8194,0.8201,0.8191,0.8194,0.8194,0.8181,0.8189,0.8183,0.818,0.8177,0.8183,0.8171,0.8178,0.818,0.8182,0.8186,0.8126,0.8182,0.8182,0.8182,0.8182,0.8182,0,0.8257,0.825,0.8253,0.825,0.8253,0.8236,0.8232,0.8236,0.8242,0.8238,0.8239,0.8245,0.8249,0.8237,0.8239,0.8247,0.8239,0.8248,0.8248,0.8247,0.8196,0.8192,0.8254,0.8254,0.8254,0.8254,0.8254,0.8254,0.8288,0.8301,0.8292,0.8304,0.8298,0.8304,0.8304,0.8302,0.8299,0.8306,0.8309,0.8301,0.8295,0.8296,0.8299,0.8296,0.8298,0.8311,0.8305,0.8257,0.825,0.8244,0.824,0.8311,0.8311,0.8355,0.8355,0.8356]}]]